Wind_Speed
20 21 21 22 24 26 25 24 22 22 22 20 19 18 18 19 20 20 20 20 19 19 18 18 17 17 17 16 15 14 13 11 9 8 6 6 7 8 10 11 12 13 15 16
21 21 21 24 25 26 27 26 25 24 24 23 22 21 20 20 21 21 20 19 17 16 16 15 15 14 13 12 12 11 10 9 9 8 8 9 10 11 13 14 15 16 16 17
21 19 20 24 24 25 25 25 25 25 24 24 23 23 23 23 22 22 21 20 19 18 17 16 15 13 12 11 10 9 8 7 7 8 8 9 11 12 14 15 17 18 19 20
21 21 22 21 21 22 23 23 23 23 22 22 21 21 22 22 21 21 21 20 20 18 17 16 15 13 12 12 11 10 10 9 9 9 10 10 11 12 13 14 16 17 18 20
23 20 18 17 17 18 19 20 21 20 19 18 18 20 21 21 20 20 19 19 19 17 16 15 14 14 13 13 12 12 12 12 12 12 12 12 13 13 13 14 15 16 17 18
26 22 18 17 16 16 16 17 18 18 17 17 18 20 20 20 19 18 18 18 17 16 15 15 14 14 14 14 15 15 15 15 15 15 15 15 15 15 15 16 16 17 17 18
27 24 20 17 16 15 14 16 16 16 16 16 17 17 18 19 19 18 18 18 17 16 16 15 15 15 15 16 16 16 16 16 17 17 18 19 19 20 20 20 19 19 18 18
26 25 21 19 17 16 16 15 15 15 14 15 15 16 17 18 18 18 18 18 17 16 16 15 15 15 16 16 16 16 17 17 19 20 21 23 24 24 25 24 22 20 19 18
24 24 24 21 18 17 16 16 16 15 14 14 14 15 15 16 17 18 18 17 16 16 15 15 15 15 15 15 15 16 17 18 20 22 24 25 26 27 28 26 23 19 17 15
19 21 22 21 19 17 16 16 16 16 15 13 13 13 14 15 15 16 16 16 15 15 14 15 14 14 14 14 15 16 17 18 20 22 24 26 27 28 29 27 25 21 17 15
14 16 18 19 19 18 17 16 15 15 15 14 13 13 14 14 15 15 15 15 14 14 14 14 14 15 15 14 15 16 17 18 19 21 24 26 27 28 29 28 27 25 22 19
11 12 13 15 16 17 17 16 15 15 15 14 14 14 14 14 14 14 13 13 12 12 13 13 14 15 15 15 15 15 16 17 18 20 22 25 26 27 28 28 28 28 27 25
10 10 11 11 12 14 15 16 16 15 15 15 15 15 15 15 14 14 12 11 11 11 11 11 12 14 14 15 15 15 16 17 18 19 21 24 26 26 27 27 27 27 27 27
11 11 10 10 11 11 11 12 14 14 15 15 15 16 16 16 15 14 13 11 10 9 9 10 11 12 14 14 15 16 16 17 17 18 19 21 24 25 25 25 26 26 26 27
14 13 13 12 11 11 11 11 11 12 13 14 15 16 17 17 16 14 13 11 9 8 8 8 9 10 12 13 13 15 16 17 17 18 19 19 21 22 23 24 24 24 24 25
15 15 14 14 13 13 12 12 11 12 12 13 15 17 18 19 18 15 13 11 9 7 7 6 7 8 9 11 12 14 16 17 18 19 19 19 19 20 21 22 22 22 22 22
16 15 15 15 15 15 15 14 13 13 13 13 14 17 19 21 21 18 14 11 9 7 6 5 5 5 6 8 10 12 14 17 18 19 18 18 18 18 19 19 20 19 19 19
17 17 16 16 17 16 16 16 15 15 14 14 15 16 18 21 22 21 18 12 7 5 5 4 3 3 4 5 7 9 11 14 17 18 18 18 17 17 17 17 17 18 18 18
20 20 19 18 18 18 18 18 18 17 16 16 16 16 18 20 22 22 20 14 6 3 4 4 4 3 2 3 5 7 9 11 15 17 18 17 16 16 16 16 15 15 16 17
25 23 23 21 20 19 19 19 19 19 18 18 18 18 18 19 20 21 21 16 9 4 4 5 5 4 3 2 3 5 7 9 12 15 16 17 16 15 15 15 15 15 14 15
29 28 26 25 23 22 21 20 20 20 20 20 19 19 19 18 18 18 18 16 11 6 5 6 7 6 5 3 3 4 6 7 9 11 13 14 15 15 15 14 14 14 14 14
34 32 30 29 27 25 24 22 22 21 21 21 21 21 20 19 18 16 15 14 11 8 7 7 8 8 8 6 5 5 5 6 7 9 10 12 13 13 14 14 14 14 13 13
38 36 34 33 31 29 28 26 25 23 23 22 22 22 21 20 19 16 14 13 11 9 8 8 9 10 10 9 8 7 6 6 7 7 8 9 10 11 12 12 12 12 12 11
43 41 39 37 35 33 31 30 28 26 25 25 24 23 23 22 21 19 17 15 13 11 10 10 11 11 12 12 11 10 8 8 8 8 8 8 9 9 10 10 11 11 11 10
48 46 44 42 40 38 36 34 32 30 29 28 27 26 25 25 24 22 20 18 16 14 13 13 14 14 14 14 14 13 12 11 11 11 10 10 9 9 9 10 10 10 9 9
52 51 50 48 45 43 40 38 36 34 33 32 30 29 28 28 27 26 25 22 20 18 17 16 16 17 17 17 17 17 17 16 15 14 13 13 12 12 11 11 10 10 9 8
55 55 54 53 51 48 46 43 40 38 38 36 35 33 31 31 31 30 29 27 25 23 22 21 20 19 19 19 20 20 21 21 20 19 18 17 16 16 15 14 13 12 11 10
Wind_Direction
29 33 37 45 47 46 45 45 46 47 48 54 61 69 70 68 66 65 65 65 68 69 65 62 59 57 57 58 58 58 57 55 48 38 20 357 339 326 318 312 304 297 293 289
33 37 41 49 49 50 51 50 51 52 55 58 60 63 65 63 62 63 63 64 65 62 60 58 56 54 53 52 49 46 40 32 22 11 357 345 333 324 319 314 308 302 299 296
34 35 40 47 48 52 53 52 52 53 56 58 60 63 65 63 61 60 59 57 55 54 54 53 52 53 53 52 49 44 36 25 14 2 353 344 336 328 321 315 310 306 302 299
34 34 38 42 45 50 52 54 53 52 55 57 61 64 65 62 56 52 50 49 48 49 50 51 52 54 54 52 50 46 42 37 30 20 9 358 348 339 330 323 317 311 305 301
35 37 39 39 42 45 48 51 51 50 53 58 58 59 58 54 49 45 43 43 42 41 43 45 47 49 50 51 51 49 44 37 29 21 13 5 358 349 340 332 324 317 311 306
34 37 39 39 39 39 40 47 47 48 51 55 55 54 51 46 43 42 41 38 36 37 39 42 45 46 47 47 45 42 37 32 28 24 19 11 3 355 346 337 329 321 315 310
35 37 40 40 40 38 37 39 41 44 46 46 46 45 42 40 41 42 41 39 39 40 42 43 45 46 46 44 43 41 39 36 31 24 16 9 3 357 350 342 334 327 319 313
35 37 38 39 39 38 36 33 33 33 34 36 36 35 33 33 35 36 37 38 39 40 42 43 44 43 42 41 38 36 32 28 24 18 14 10 6 2 356 349 342 336 328 320
34 36 37 37 37 35 32 30 28 26 25 25 25 24 23 22 24 27 31 34 36 38 39 40 41 40 38 36 32 27 24 22 19 17 15 13 11 9 6 2 357 351 346 340
29 31 33 34 33 30 26 23 22 22 21 17 13 10 10 12 14 17 22 27 29 31 33 34 34 32 29 27 23 20 18 18 18 18 18 17 16 15 16 17 18 17 13 8
19 24 27 30 30 28 24 18 14 12 12 9 4 359 358 0 4 6 11 16 20 23 24 25 25 24 22 21 18 17 17 18 19 20 21 21 20 21 23 27 31 33 34 35
1 9 16 21 26 28 28 23 15 8 3 0 356 351 349 349 352 356 360 6 11 14 17 19 20 20 19 18 18 18 19 19 20 21 23 24 24 25 28 33 37 40 42 43
331 343 355 5 12 18 22 24 21 16 9 2 355 349 345 344 345 348 350 353 1 6 11 15 17 17 17 17 18 19 18 17 18 21 25 27 27 28 31 35 38 42 45 47
305 313 322 334 345 352 360 8 12 15 14 11 5 357 349 343 342 343 344 345 349 354 2 10 15 16 16 16 17 19 18 17 18 21 26 29 30 30 32 36 39 42 44 46
294 298 302 307 315 324 332 341 351 359 4 6 5 1 355 349 345 341 340 338 339 342 348 357 5 11 14 16 17 18 19 20 21 23 27 30 31 32 33 36 39 41 44 45
291 293 295 296 298 303 310 316 325 336 347 355 358 359 358 355 352 346 339 334 332 328 331 338 348 359 9 14 15 17 21 23 23 24 26 29 32 33 34 36 39 41 43 45
289 291 294 295 294 293 295 300 305 313 324 335 346 353 356 356 354 351 344 335 325 317 311 312 322 341 360 11 14 16 21 23 24 24 24 27 31 34 35 36 38 41 42 44
286 290 293 295 294 291 289 289 293 298 305 315 328 341 350 354 354 354 353 345 331 304 288 285 284 306 343 1 9 13 17 20 22 23 24 26 30 32 34 35 37 39 41 43
283 287 290 291 291 290 286 284 285 289 295 302 311 324 337 347 352 354 356 353 337 286 254 249 245 253 300 342 355 0 5 11 16 19 22 25 27 29 31 33 35 37 39 41
281 284 287 289 288 287 285 282 281 283 287 293 300 309 320 332 341 349 354 355 344 303 251 236 230 231 247 296 333 343 351 358 4 9 16 21 25 27 29 30 32 33 34 36
278 280 283 285 286 285 282 280 278 279 281 286 293 300 308 317 327 336 344 350 346 319 275 252 240 236 238 254 292 319 330 341 350 358 5 13 19 24 26 28 29 30 31 32
273 275 277 279 281 281 280 278 276 275 277 280 285 290 296 303 311 319 327 334 337 325 295 272 257 248 245 249 262 286 307 322 334 344 352 360 8 16 21 23 25 25 26 28
267 270 272 274 275 276 277 275 273 272 272 275 278 282 286 291 296 301 305 311 314 308 296 282 268 258 254 253 257 266 282 300 314 326 337 345 353 1 8 13 17 19 20 22
264 266 267 269 271 272 273 272 271 269 268 268 271 274 277 281 284 286 288 291 294 290 283 277 272 266 261 258 258 263 270 280 291 301 313 325 335 342 350 357 3 8 11 13
262 263 264 265 267 268 269 270 270 267 265 264 265 267 269 272 274 277 278 278 277 276 274 270 267 265 264 262 262 264 270 275 280 284 289 297 307 317 327 336 343 349 355 360
259 260 261 261 262 263 264 265 266 265 263 261 260 261 263 265 267 269 270 271 269 266 265 264 262 261 261 261 262 264 268 274 278 279 279 281 286 292 299 306 314 321 327 333
257 258 258 258 258 259 260 261 262 261 260 259 257 257 257 259 260 262 263 265 265 263 261 259 258 258 259 260 262 264 267 271 274 277 277 277 277 279 281 285 290 295 301 306
Height
5846 5842 5838 5833 5828 5825 5821 5817 5814 5810 5807 5805 5802 5800 5799 5797 5796 5795 5795 5794 5794 5793 5792 5791 5790 5788 5787 5786 5785 5784 5784 5783 5783 5783 5783 5783 5782 5782 5781 5781 5781 5780 5780 5780
5848 5845 5842 5837 5833 5829 5826 5823 5820 5817 5814 5811 5808 5806 5805 5804 5803 5802 5801 5800 5799 5798 5796 5795 5794 5792 5791 5790 5789 5789 5788 5787 5786 5786 5785 5784 5783 5782 5781 5780 5779 5778 5777 5776
5850 5848 5845 5841 5838 5835 5832 5829 5826 5823 5821 5817 5814 5813 5811 5810 5809 5807 5806 5804 5803 5802 5800 5799 5797 5796 5795 5793 5792 5792 5791 5790 5789 5788 5787 5785 5783 5782 5780 5778 5776 5774 5772 5771
5854 5851 5847 5848 5843 5840 5837 5834 5831 5828 5826 5823 5821 5819 5817 5815 5814 5812 5810 5809 5807 5806 5804 5802 5801 5799 5798 5796 5795 5794 5793 5792 5790 5789 5787 5785 5783 5781 5778 5776 5773 5770 5768 5766
5857 5853 5851 5850 5847 5844 5842 5839 5836 5834 5831 5829 5827 5824 5822 5820 5819 5817 5815 5812 5811 5809 5807 5805 5804 5802 5801 5799 5798 5797 5795 5793 5792 5790 5787 5785 5782 5779 5776 5773 5770 5767 5764 5761
5862 5858 5855 5854 5851 5848 5847 5844 5841 5838 5836 5834 5831 5829 5827 5825 5823 5820 5818 5816 5814 5812 5809 5808 5806 5805 5804 5802 5800 5799 5797 5795 5793 5790 5788 5785 5781 5778 5774 5770 5766 5763 5759 5756
5866 5863 5859 5857 5854 5852 5851 5849 5845 5843 5840 5838 5835 5834 5832 5829 5826 5824 5822 5819 5817 5815 5813 5811 5809 5808 5806 5805 5803 5801 5799 5797 5794 5791 5788 5784 5780 5776 5771 5766 5761 5757 5753 5750
5871 5867 5866 5861 5858 5856 5854 5850 5848 5846 5844 5842 5839 5837 5835 5833 5830 5828 5825 5823 5821 5818 5816 5815 5813 5811 5809 5807 5806 5803 5801 5798 5795 5792 5788 5784 5779 5773 5767 5761 5756 5751 5747 5744
5877 5875 5869 5865 5862 5860 5857 5854 5852 5849 5847 5845 5843 5841 5839 5837 5834 5832 5829 5827 5824 5822 5820 5818 5816 5814 5812 5810 5808 5806 5803 5800 5797 5793 5789 5784 5779 5772 5766 5759 5752 5747 5744 5740
5880 5877 5873 5869 5866 5863 5860 5857 5855 5852 5850 5847 5845 5844 5842 5840 5838 5835 5833 5830 5828 5826 5824 5821 5819 5817 5815 5813 5810 5807 5805 5802 5798 5795 5790 5786 5780 5774 5767 5760 5754 5748 5744 5741
5882 5880 5876 5873 5870 5866 5863 5860 5857 5855 5852 5850 5848 5845 5843 5841 5839 5837 5835 5833 5831 5829 5826 5824 5822 5820 5817 5814 5812 5809 5807 5804 5800 5797 5793 5788 5783 5777 5771 5765 5758 5753 5748 5744
5883 5881 5879 5876 5873 5870 5866 5863 5860 5857 5854 5852 5849 5847 5845 5843 5841 5839 5837 5835 5833 5831 5829 5827 5825 5822 5820 5817 5814 5812 5809 5806 5803 5799 5796 5791 5786 5781 5775 5770 5764 5759 5754 5750
5882 5880 5879 5877 5874 5872 5869 5866 5862 5859 5856 5854 5851 5848 5846 5843 5841 5840 5838 5836 5835 5833 5831 5829 5827 5825 5822 5820 5817 5814 5811 5808 5805 5802 5798 5794 5790 5785 5780 5775 5770 5765 5761 5756
5879 5879 5878 5876 5874 5872 5870 5867 5864 5861 5858 5855 5852 5849 5846 5844 5841 5839 5838 5837 5835 5834 5832 5831 5829 5827 5824 5822 5819 5816 5813 5810 5807 5804 5801 5797 5793 5789 5785 5780 5776 5771 5767 5763
5877 5876 5875 5874 5873 5871 5869 5867 5865 5862 5859 5856 5853 5850 5847 5843 5841 5839 5837 5836 5834 5833 5832 5831 5830 5828 5826 5824 5822 5819 5816 5813 5810 5807 5803 5800 5797 5793 5789 5785 5781 5777 5774 5770
5873 5873 5872 5871 5870 5869 5867 5866 5864 5862 5860 5857 5854 5850 5847 5844 5840 5837 5835 5834 5833 5832 5831 5831 5830 5828 5827 5825 5823 5821 5818 5815 5812 5809 5806 5803 5800 5797 5793 5790 5786 5783 5780 5776
5869 5869 5868 5867 5867 5866 5864 5863 5862 5860 5859 5856 5854 5851 5847 5844 5840 5836 5834 5832 5831 5830 5830 5829 5829 5828 5827 5826 5825 5823 5820 5818 5815 5811 5808 5805 5803 5800 5797 5794 5791 5788 5785 5782
5865 5865 5864 5864 5863 5862 5861 5860 5859 5857 5856 5854 5852 5850 5847 5844 5840 5836 5832 5829 5828 5828 5827 5827 5827 5827 5827 5826 5825 5824 5822 5820 5817 5814 5811 5808 5805 5803 5800 5797 5795 5792 5789 5786
5860 5860 5860 5859 5858 5857 5856 5856 5855 5854 5853 5852 5850 5848 5846 5843 5840 5835 5831 5828 5826 5825 5825 5825 5825 5826 5826 5826 5825 5824 5823 5821 5819 5816 5813 5810 5807 5805 5803 5800 5798 5795 5793 5790
5854 5855 5854 5854 5853 5853 5852 5851 5850 5850 5849 5848 5847 5846 5844 5842 5839 5835 5832 5828 5826 5825 5824 5824 5825 5825 5825 5825 5824 5824 5823 5821 5819 5817 5815 5812 5809 5807 5805 5802 5800 5798 5795 5793
5847 5848 5848 5848 5848 5847 5846 5846 5845 5845 5844 5844 5843 5842 5841 5839 5837 5835 5832 5829 5827 5825 5824 5824 5824 5824 5824 5824 5823 5823 5822 5821 5820 5818 5816 5814 5811 5809 5806 5804 5802 5800 5798 5795
5838 5839 5840 5840 5841 5841 5840 5840 5840 5840 5839 5839 5838 5837 5837 5836 5835 5833 5832 5829 5827 5825 5824 5823 5823 5823 5823 5822 5822 5822 5821 5820 5819 5818 5816 5814 5812 5810 5808 5806 5804 5801 5799 5797
5829 5830 5831 5832 5832 5832 5833 5833 5834 5834 5834 5833 5833 5833 5832 5831 5831 5830 5829 5828 5826 5824 5823 5822 5822 5821 5821 5821 5821 5820 5819 5819 5818 5817 5815 5814 5813 5811 5809 5807 5805 5803 5801 5799
5817 5819 5821 5822 5822 5823 5824 5825 5826 5827 5827 5827 5827 5827 5826 5826 5825 5825 5825 5824 5823 5822 5821 5820 5819 5819 5819 5819 5819 5818 5817 5817 5816 5815 5814 5813 5812 5810 5809 5807 5805 5804 5802 5800
5803 5806 5808 5810 5811 5812 5813 5814 5816 5817 5818 5819 5819 5819 5820 5819 5819 5819 5819 5819 5818 5818 5817 5816 5816 5815 5815 5815 5816 5815 5815 5814 5814 5813 5812 5811 5810 5809 5807 5806 5805 5803 5802 5800
5788 5790 5793 5796 5798 5800 5801 5803 5805 5806 5808 5809 5810 5811 5811 5811 5811 5811 5811 5812 5812 5812 5812 5811 5811 5811 5810 5811 5811 5811 5811 5811 5810 5809 5809 5808 5807 5806 5805 5804 5803 5802 5801 5799
5772 5774 5777 5780 5783 5785 5787 5789 5792 5794 5796 5797 5799 5800 5801 5802 5802 5802 5803 5803 5804 5805 5805 5805 5805 5805 5805 5805 5805 5805 5805 5805 5805 5805 5804 5803 5803 5802 5802 5801 5800 5799 5798 5797